Regional Weather Roundup
Issued by NWS

Home | Current Version | Previous Version | Graphics & Text | Print | Product List | Glossary On
Versions: 1 2 3 4 5 6 7 8 9 10 11 12 13 14 15 16 17 18 19 20 21 22 23 24 25 26 27 28 29 30 31 32 33 34 35 36 37 38 39 40 41 42 43 44 45 46 47 48 49 50
000
ASUS43 KMKX 281311
RWRWI

WISCONSIN REGIONAL WEATHER ROUNDUP
NATIONAL WEATHER SERVICE MILWAUKEE/SULLIVAN WI
700 AM CST TUE FEB 28 2017

NOTE: "FAIR" INDICATES FEW OR NO CLOUDS BELOW 12,000 FEET WITH NO
SIGNIFICANT WEATHER AND/OR OBSTRUCTIONS TO VISIBILITY.

WIZ001-002-006>008-014>016-023>028-281400-
NORTHWEST WISCONSIN

CITY           SKY/WX    TMP DP  RH WIND       PRES   REMARKS
SUPERIOR ARPT  CLOUDY    32  32  99 NE6       29.81F FOG     WCI  26
ASHLAND        FLURRIES  30  27  88 NE7       29.83R WCI  23
HAYWARD        CLOUDY    34  29  82 NE5       29.78F WCI  30
SIREN          CLOUDY    33  27  77 NE5       29.77F WCI  29
CUMBERLAND     DRIZZLE   34  30  86 NE6       29.76R WCI  29
RICE LAKE      CLOUDY    36  31  82 N6        29.78R WCI  31
CHETEK         CLOUDY    35  31  85 E3        29.76R
LADYSMITH      CLOUDY    36  32  85 E6        29.77F WCI  31
EAU CLAIRE     CLOUDY    36  32  85 NE3       29.75R
MENOMONIE      CLOUDY    35  32  88 CALM      29.75R
NEW RICHMOND   CLOUDY    35  30  81 NE7       29.75F WCI  29
OSCEOLA        CLOUDY    37  31  78 E6        29.78F WCI  32
$$

WIZ003>005-009-010-017-018-281400-
NORTH CENTRAL WISCONSIN

CITY           SKY/WX    TMP DP  RH WIND       PRES   REMARKS
MANITOWISH WTR CLOUDY    32  31  96 CALM      29.78S
ARBOR VITAE    CLOUDY    34  31  89 SE5         N/A  WCI  30
WOODRUFF       CLOUDY    34  31  89 SE5         N/A  WCI  30
RHINELANDER    CLOUDY    35  32  88 E3        29.79F FOG
EAGLE RIVER    MIX PCPN  33  30  91 SE3       29.79S
LAND O LAKES   CLOUDY    32  30  92 CALM      29.81S
PHILLIPS       CLOUDY    31  30  94 CALM      29.76F
TOMAHAWK       CLOUDY    32  29  90 CALM      29.79S FOG
MEDFORD        CLOUDY    33  31  92 E6        29.75F WCI  28
MERRILL        NOT AVBL
$$

WIZ029-030-035-036-043>047-281400-
CENTRAL WISCONSIN

CITY           SKY/WX    TMP DP  RH WIND       PRES   REMARKS
WAUSAU         CLOUDY    34  32  92 E8        29.76F FOG     WCI  27
MOSINEE        CLOUDY    36  36 100 E5        29.77F FOG     WCI  32
MARSHFIELD     CLOUDY    37  35  92 SE7       29.76R FOG     WCI  32
STEVENS POINT  DRIZZLE   35  35 100 E7        29.79S WCI  29
WAUPACA        CLOUDY    39  38  96 NE5       29.79F FOG
WAUTOMA        FOG       38  37  97 E3        29.79S VSB 3/4
WISC RAPIDS    CLOUDY    38  38 100 E6        29.78S FOG     WCI  33
CAMP DOUGLAS   FOG       36  36 100 E8        29.74F VSB 3/4 WCI  29
$$

WIZ011>013-019>022-031-037>040-048>050-281400-
NORTHEAST WISCONSIN

CITY           SKY/WX    TMP DP  RH WIND       PRES   REMARKS
ANTIGO         CLOUDY    33  33  98 SE6       29.81S FOG     WCI  28
SHAWANO        DRIZZLE   37  35  94 NE3       29.82F
OCONTO         CLOUDY    36  35  98 CALM      29.84F
STURGEON BAY   LGT RAIN  40  38  93 S10         N/A  WCI  33
GREEN BAY      CLOUDY    39  39 100 SE9       29.82F FOG     WCI  33
MANITOWOC      CLOUDY    39  37  92 SE8       29.84F FOG     WCI  33
APPLETON       CLOUDY    37  37 100 SE7       29.79F FOG     WCI  32
CLINTONVILLE   FOG       34  34 100 E3        29.81F VSB 1/2
OSHKOSH        FOG       37  37 100 E7        29.78F VSB 3/4 WCI  32
$$

WIZ032>034-041-042-053>061-281400-
SOUTHWEST WISCONSIN

CITY           SKY/WX    TMP DP  RH WIND       PRES   REMARKS
LA CROSSE      CLOUDY    42  38  85 SE7       29.73F
SPARTA         CLOUDY    38  37  97 E5        29.74F FOG     WCI  34
VIROQUA        CLOUDY    38  38 100 E7        29.71F WCI  33
BOSCOBEL       CLOUDY    41  39  93 NE5       29.73F FOG
PRAIRIE DU CHI FOG       35  34  96 CALM      29.70F VSB 3/4
PLATTEVILLE      N/A     40  40 100 E8        29.72F VSB<1/4 WCI  34
$$

WIZ056-057-062-063-064-067-068-281400-
SOUTH CENTRAL WISCONSIN

CITY           SKY/WX    TMP DP  RH WIND       PRES   REMARKS
REEDSBURG      CLOUDY    38  38 100 CALM      29.75F FOG
BARABOO/DELLS  FOG       39  38  97 E5        29.75F VSB 3/4
LONE ROCK      CLOUDY    43  41  93 E6        29.74F FOG
MINERAL POINT  CLOUDY    45  45 100 SE7       29.73F FOG
MADISON        CLOUDY    43  42  97 SE5       29.77S FOG
MIDDLETON      CLOUDY    43  43 100 E3        29.76R
WATERTOWN      CLOUDY    42  42 100 E5        29.78S FOG
MONROE         CLOUDY    45  45 100 SE9       29.75S FOG
JANESVILLE     CLOUDY    48  48 100 S7        29.77S
$$

WIZ051-052-058>065-066-070>072-281400-
SOUTHEAST WISCONSIN

CITY           SKY/WX    TMP DP  RH WIND       PRES   REMARKS
MILWAUKEE      CLOUDY    42  40  92 SE6       29.80F FOG
WAUKESHA       FOG       39  39 100 SE7       29.80F VSB 1   WCI  34
MILWAUKEE/TIMM CLOUDY    41  37  87 CALM      29.81F FOG
RACINE         CLOUDY    41  39  93 S7        29.82F FOG
KENOSHA        CLOUDY    42  41  96 SE3       29.80F FOG
FOND DU LAC    CLOUDY    40  37  89 SE9       29.78F FOG     WCI  34
SHEBOYGAN      LGT RAIN  39  38  96 SE7       29.82F FOG     WCI  34
WEST BEND      CLOUDY    39  39 100 SE6       29.79F FOG     WCI  35
JUNEAU         CLOUDY    40  40  98 SE7       29.79F FOG
$$

LSZ147-162-281400-
LAKE SUPERIOR

STATION/POSITION TIME  TEMP    WIND        PRES    WAVE
                       AIR SEA DIR/SP/G            HT/PER
                 (UTC) (F)     (DEG/KT/KT) (MB)    (FT/S)
DEVILS ISLAND    1200   33      40/ 13/ 15 1011.1F
PORT WING        1230   32      60/  6/  7 1009.8F
SAXON HARBOR     1240   31     190/  2/  2 1010.2S
$$

LMZ867-665-643>646-281400-
LAKE MICHIGAN

STATION/POSITION TIME  TEMP    WIND        PRES    WAVE
                       AIR SEA DIR/SP/G            HT/PER
                 (UTC) (F)     (DEG/KT/KT) (MB)    (FT/S)
CHAMBERS ISLAND  1240   39     160/  4/  7 1011.2S
NORTHPORT PIER   1240   38     150/  5/  9 1011.9S
SISTER BAY       1235   39     160/  7/ 10   N/A
KEWAUNEE LAKESHO 1248   38     160/ 10/ 11 1010.5F
SHEBOYGAN LAKESH 1300   39     130/ 14/ 16 1009.8F
PORT WASHINGTON  1240   39     180/  5/  9 1010.8F
MILWAUKEE LAKESH 1250   39     130/  9/ 10   N/A
KENOSHA   LAKESH 1200   39     150/  8/  8 1010.5
$$

TC  - TEMPERATURE IN CELSIUS
VSB - VISIBILITY IN STATUTE MILES
WCI - WIND CHILL INDEX
HX  - HEAT INDEX




USA.gov is the U.S. government's official web portal to all federal, state and local government web resources and services.